Theta_e
344 342 345 335 323 324 312 315 321 320 322 325 327 325 323 326 324 317 335 341 345 347 352 355 360 356 354 353 352 352 351 352 352 353 353 352 351 351 353 355 356 354 354 356 356 355 355 355 355
338 332 328 326 318 310 313 319 318 322 326 328 326 324 323 322 328 331 334 342 346 348 352 354 358 356 353 352 352 352 352 352 351 351 351 351 351 351 351 352 353 352 353 353 353 353 353 353 354
333 327 319 319 311 311 313 319 320 323 326 324 321 322 324 322 328 332 339 343 345 347 350 359 358 355 352 352 351 351 352 352 352 352 353 353 353 354 353 352 352 351 350 350 351 351 352 351 351
325 324 321 313 316 320 319 321 322 322 323 324 323 319 328 332 330 337 340 343 342 344 351 358 357 355 352 352 352 352 352 352 352 352 352 352 352 352 351 350 349 348 349 349 349 349 350 351 351
322 321 315 315 318 321 323 324 324 320 321 321 320 318 323 330 336 338 340 341 340 342 348 353 357 354 353 352 352 351 351 351 351 351 350 349 348 346 346 346 347 347 348 350 351 352 353 354 354
316 321 313 311 317 321 325 324 323 322 321 318 317 318 321 331 334 337 339 340 340 341 342 350 356 355 353 352 352 352 351 350 350 349 348 347 348 349 349 350 350 351 352 353 353 354 356 357 358
315 317 313 315 317 319 324 327 323 321 318 316 320 316 322 327 334 337 338 339 339 339 339 343 346 352 354 353 352 352 352 351 351 350 350 351 351 351 352 352 351 352 353 354 356 357 357 356 356
319 318 314 315 313 317 327 327 324 320 316 321 322 316 318 328 335 336 337 336 337 338 337 339 342 341 343 345 353 352 351 351 351 351 352 353 354 354 354 354 354 355 356 356 355 354 355 356 357
320 313 312 314 314 320 328 324 325 323 317 319 320 322 327 332 334 332 331 332 333 335 337 339 337 339 339 341 347 351 352 352 352 352 353 354 356 356 359 358 357 354 353 353 351 352 354 355 356
315 314 313 319 321 322 326 324 323 318 317 319 318 324 328 331 330 328 328 329 331 333 336 338 339 340 340 340 342 347 347 348 354 354 356 356 359 357 355 359 356 354 353 356 355 355 358 355 342
316 314 318 319 322 326 325 322 325 318 316 320 317 321 325 328 328 326 327 328 329 333 335 337 340 343 341 341 345 348 348 352 354 356 358 360 358 359 356 356 355 353 353 340 341 341 336 337 336
313 318 319 324 324 325 324 325 322 320 321 324 321 324 325 326 326 325 326 327 328 332 334 337 342 345 346 347 347 349 349 352 353 355 359 360 360 357 355 353 351 342 337 337 336 334 336 335 335
314 316 321 326 326 327 327 324 323 323 325 326 322 324 324 325 326 327 327 328 330 331 334 336 342 348 350 350 350 351 353 351 355 357 359 359 355 357 355 351 338 336 335 332 331 331 331 331 334
316 316 322 326 326 328 324 324 325 326 327 326 322 322 324 324 325 326 327 329 332 335 338 341 341 348 349 353 355 357 357 359 357 360 359 359 357 357 351 340 335 333 332 330 329 329 328 328 334
318 316 323 325 327 325 327 321 320 328 327 326 323 322 323 325 327 327 329 332 336 337 341 343 347 350 353 353 359 359 360 356 359 357 359 357 356 350 341 334 333 332 332 330 331 330 330 328 330
316 318 313 321 324 325 325 314 321 327 325 324 326 323 324 327 328 331 333 335 338 340 342 345 344 348 351 354 359 357 356 357 356 354 353 350 344 340 338 333 332 332 331 330 330 329 328 327 327
315 309 312 317 323 322 321 314 322 326 325 325 327 327 326 328 330 333 336 338 340 342 343 344 347 346 350 359 359 358 359 355 354 352 348 341 335 333 334 332 332 334 331 331 330 330 329 327 326
307 309 312 314 320 320 317 316 323 324 325 324 326 327 328 329 332 334 336 338 341 343 347 349 350 355 359 359 359 356 354 353 350 346 340 336 332 333 334 333 333 334 331 331 331 332 330 328 325
311 312 309 314 321 318 316 317 318 322 322 323 325 326 328 329 334 337 340 341 342 345 348 352 353 363 359 355 352 350 348 346 345 339 337 333 332 334 335 332 333 334 333 333 333 330 329 325 328
310 311 311 315 320 318 316 315 318 321 322 322 323 326 328 330 331 335 338 341 342 345 349 354 354 361 360 354 355 351 347 344 337 334 333 334 334 335 334 334 333 335 332 334 333 332 325 324 327
308 309 310 311 315 317 313 310 315 319 321 322 323 325 328 330 331 334 336 340 342 345 349 353 360 357 360 357 352 346 340 336 340 330 329 332 333 334 335 335 334 334 333 329 332 332 330 320 323
305 311 311 310 310 305 312 300 309 313 315 318 320 323 326 329 332 335 337 341 345 347 351 355 357 355 353 352 344 339 334 330 328 329 331 330 333 334 335 336 336 337 332 334 331 331 330 327 320
307 311 310 310 307 307 306 303 307 311 311 315 319 321 324 327 331 333 338 345 347 350 352 355 355 350 351 347 341 337 333 334 337 329 334 338 338 335 334 336 337 336 333 335 333 332 330 326 321
311 309 309 309 307 300 305 304 305 309 312 315 318 320 323 325 327 331 338 345 348 351 354 355 353 351 348 339 334 335 334 334 328 330 329 329 331 333 335 336 336 337 336 333 331 331 329 327 325
309 306 299 297 297 297 307 304 307 313 315 316 316 318 321 324 325 329 334 340 351 353 352 351 350 345 343 339 338 334 336 341 335 336 329 331 329 330 335 337 336 334 334 332 331 330 328 325 322
307 306 299 293 295 299 307 301 306 314 316 317 318 319 321 324 327 328 332 339 349 352 351 345 344 342 341 338 337 337 339 333 330 335 330 329 329 332 338 336 335 333 330 329 329 328 323 324 320
307 304 309 303 304 300 304 307 313 314 314 315 316 318 321 322 324 328 328 339 348 349 348 342 340 341 341 339 338 338 337 335 332 338 344 332 340 334 336 334 333 330 328 327 325 324 322 321 320
310 312 304 305 297 295 301 303 304 311 312 315 316 318 320 322 325 327 328 336 349 347 348 342 340 343 342 341 340 337 336 338 338 339 339 340 340 336 335 333 330 328 326 324 323 320 321 320 318
307 305 308 308 305 298 297 301 313 313 316 316 318 319 321 322 325 328 331 337 349 349 345 346 340 340 342 341 341 340 338 338 339 339 337 337 337 335 332 330 328 325 322 322 321 319 317 316 316
309 308 308 301 301 304 303 302 314 315 316 318 318 320 322 323 324 328 333 338 343 347 344 342 343 342 341 341 341 341 338 338 339 338 337 335 334 333 330 327 323 321 320 319 317 315 314 314 313
Wind_Speed
11 13 12 6 10 9 13 14 5 11 9 4 10 12 14 16 15 9 15 15 17 18 16 14 12 11 9 8 8 8 9 9 9 9 8 8 8 7 7 7 7 8 8 8 8 8 8 9 9
13 11 8 8 7 7 10 14 15 13 11 11 7 2 13 15 13 17 14 14 16 17 14 14 12 10 9 9 9 9 9 9 9 9 9 9 8 8 8 7 6 6 6 6 7 7 8 8 9
16 11 11 11 5 3 14 15 12 11 9 5 7 10 9 10 13 14 17 14 16 16 16 15 14 12 10 10 10 9 9 9 9 9 9 9 8 8 7 6 4 4 3 3 4 6 7 8 9
9 9 5 7 3 15 17 13 9 10 6 4 10 15 14 13 6 17 16 15 14 16 19 15 13 11 10 10 10 10 9 8 8 8 7 7 6 5 4 3 1 2 3 5 6 7 9 10 11
10 10 16 15 16 10 14 11 6 8 8 8 7 16 13 9 14 16 14 13 13 17 18 15 12 11 10 10 10 9 8 8 7 6 5 5 4 2 1 2 3 4 4 5 7 8 9 10 12
10 10 16 6 17 9 11 8 8 8 11 11 18 16 15 13 16 15 14 12 13 16 17 15 12 11 10 9 9 8 8 7 6 5 4 2 2 1 3 3 4 5 6 7 7 8 10 11 12
14 15 16 4 15 10 10 7 5 11 11 14 15 17 13 16 15 14 12 12 14 13 17 14 14 12 10 9 9 8 7 6 5 4 3 4 5 5 6 6 5 5 6 7 7 7 8 9 9
11 15 17 6 7 18 13 6 10 10 13 10 13 11 16 18 16 14 12 13 14 12 15 15 14 14 13 12 9 8 6 6 5 5 6 9 9 9 9 7 1 1 1 1 2 5 9 12 12
12 13 13 10 2 18 13 11 10 12 14 8 6 18 20 20 17 15 14 13 13 11 13 14 15 14 15 14 11 10 9 8 8 9 11 12 10 10 11 9 5 4 4 5 6 8 12 15 17
12 14 6 13 10 10 11 13 12 14 14 12 15 22 21 20 18 17 16 14 14 14 13 13 12 10 10 10 12 11 11 10 10 7 5 9 6 6 6 6 11 9 8 10 12 11 14 13 9
15 18 11 8 6 3 11 12 9 14 13 16 19 22 22 19 17 17 17 17 15 15 11 12 9 8 11 9 8 5 6 5 4 4 5 4 3 2 5 3 5 3 1 5 5 2 7 10 8
11 11 6 7 2 8 12 12 8 12 10 17 19 21 20 19 18 17 16 16 17 16 14 13 12 9 6 6 6 5 4 4 4 5 3 2 3 2 4 5 5 4 4 5 6 6 7 8 8
13 5 2 2 8 7 8 9 6 12 6 17 21 21 21 19 17 15 15 15 15 15 14 13 13 10 6 4 4 3 2 4 2 4 4 4 4 3 4 5 4 4 4 6 6 6 6 7 7
11 7 7 9 12 6 11 10 6 9 11 13 21 21 20 19 18 15 14 14 12 13 14 13 13 11 10 8 3 3 3 3 4 1 4 0 3 3 3 2 4 4 6 5 6 6 6 7 7
5 11 9 11 15 13 14 13 12 13 13 14 19 18 18 18 17 16 14 14 14 13 14 13 11 12 9 8 6 4 2 4 1 4 1 4 3 4 3 4 3 5 4 6 6 7 6 7 7
15 16 15 18 17 9 15 15 18 16 14 16 18 17 17 18 18 17 16 15 15 14 14 13 11 14 11 8 6 4 4 3 3 3 4 4 4 3 1 3 5 5 4 6 5 7 7 7 7
13 14 19 19 18 13 16 3 13 13 15 15 15 17 18 18 18 19 19 16 15 14 14 13 12 13 13 8 6 4 5 4 3 3 4 4 5 4 3 4 4 4 5 6 8 7 8 8 9
17 18 18 15 19 18 19 18 19 14 13 13 16 16 19 19 20 19 18 19 17 16 13 14 11 10 11 9 6 6 6 4 4 3 5 5 5 6 3 5 4 5 6 7 8 6 7 6 9
12 13 21 18 18 19 16 19 14 15 13 15 15 15 18 19 20 20 19 17 17 16 15 13 13 10 10 9 8 7 6 5 4 4 5 6 6 6 3 5 5 5 7 7 8 7 6 6 8
14 19 18 11 12 11 16 18 15 15 19 17 15 17 19 19 20 22 21 19 17 15 15 14 14 13 9 8 4 5 7 5 5 5 6 7 7 5 4 3 4 4 6 6 7 8 7 5 6
16 17 15 14 11 10 14 19 16 16 18 14 15 16 20 20 21 19 21 21 17 15 15 15 13 14 9 7 8 6 6 6 3 6 6 7 8 7 6 5 5 2 3 5 5 8 7 8 5
18 17 19 15 12 12 20 15 19 21 19 18 17 16 19 21 20 20 20 17 17 17 16 17 15 14 11 12 10 10 6 6 6 7 6 7 8 8 7 5 3 4 4 4 5 6 9 5 8
17 18 15 17 14 16 18 10 13 20 11 11 15 15 16 20 21 22 21 19 17 17 18 16 18 17 16 13 12 9 11 7 5 7 10 7 7 8 7 6 4 2 2 3 4 6 7 8 7
15 19 17 15 16 18 20 20 15 15 15 18 16 17 16 18 22 22 20 20 17 15 17 18 19 17 18 15 19 22 14 10 9 10 9 9 8 7 7 7 4 2 1 4 3 4 6 5 5
16 13 12 15 16 16 20 22 15 20 13 16 7 12 10 17 18 18 20 18 20 20 20 17 19 19 19 18 15 16 14 10 13 11 11 11 9 9 8 7 6 4 3 2 3 2 3 4 5
17 17 15 19 18 20 25 24 18 13 11 12 13 8 8 11 11 9 18 19 23 22 22 19 20 17 17 14 11 11 15 10 9 12 11 10 9 8 11 7 5 4 3 1 2 1 4 4 5
19 18 19 22 22 19 17 7 14 8 10 9 11 9 11 9 5 6 15 17 24 22 21 22 21 17 13 12 13 15 15 15 12 14 10 9 7 10 10 8 6 4 2 1 3 4 3 4 3
16 11 12 11 18 21 14 15 12 9 9 11 11 12 10 9 3 8 8 10 24 21 21 22 22 17 15 16 16 15 16 15 12 13 11 10 8 9 11 7 7 5 1 2 4 1 5 2 3
14 17 14 13 13 14 15 14 8 6 12 11 12 10 9 7 7 7 7 10 18 19 20 20 21 22 15 14 15 16 17 15 13 12 12 11 11 11 10 9 8 6 4 1 0 2 1 2 2
21 18 21 15 18 14 14 16 12 2 6 10 11 9 8 6 7 10 9 12 16 21 20 19 18 21 18 15 16 14 14 14 14 13 14 14 12 11 10 6 7 5 4 3 1 0 3 2 4
Wind_Direction
195 213 230 247 251 220 65 95 129 105 102 56 64 24 47 32 11 64 113 106 115 119 126 147 134 132 134 130 122 116 114 112 108 104 96 90 86 85 84 83 75 69 63 54 46 33 22 12 3
224 228 239 273 251 141 93 70 56 62 84 84 67 135 53 58 86 111 120 123 120 119 144 129 128 131 136 133 125 118 112 107 104 102 100 95 91 88 86 85 74 64 49 36 21 6 354 345 339
266 251 275 216 96 239 94 86 90 94 121 109 107 48 40 100 117 122 116 136 117 136 125 118 135 140 141 135 127 120 117 113 107 102 96 92 87 83 82 83 74 53 28 4 345 332 324 320 318
244 213 217 336 346 59 88 91 87 107 97 52 108 92 87 79 105 111 137 133 150 130 111 129 135 140 138 131 124 120 116 110 105 102 98 94 88 84 82 81 55 345 327 323 320 316 314 313 312
238 255 257 179 71 81 84 83 111 84 81 94 118 100 104 104 108 133 135 143 143 121 114 133 138 138 131 125 119 118 115 112 107 104 99 94 84 60 16 328 315 308 308 311 312 312 310 308 305
249 254 269 49 94 100 93 93 79 81 84 107 95 114 97 126 135 135 144 146 125 116 131 136 135 131 127 123 120 116 113 113 115 117 118 125 149 222 258 269 282 294 299 302 304 307 307 303 297
255 276 287 62 95 140 114 116 117 71 115 104 129 111 120 145 135 137 146 133 123 135 121 137 140 133 134 133 130 129 133 135 142 153 179 207 215 220 238 247 261 275 286 293 300 307 307 301 294
272 284 274 203 128 105 122 150 108 113 95 108 125 131 147 134 145 144 138 140 138 151 140 148 144 159 164 154 147 147 153 163 176 198 221 229 225 211 219 199 118 6 3 0 333 300 287 277 265
248 266 255 114 245 108 143 130 105 106 132 129 80 133 134 143 148 154 153 154 151 155 150 152 160 158 164 138 147 167 181 193 202 210 226 239 225 182 136 88 140 172 213 235 245 252 259 261 254
236 242 351 48 15 122 157 136 125 145 139 127 107 116 137 153 161 160 161 159 153 163 166 153 154 157 142 151 153 188 177 192 196 194 200 231 46 34 347 156 183 200 227 219 243 241 257 258 338
223 260 31 90 352 296 142 140 155 142 158 147 141 143 153 161 169 167 167 162 162 168 163 155 142 174 151 168 173 174 174 155 174 202 264 32 305 164 197 180 173 18 189 11 317 87 6 352 344
256 254 329 42 225 231 153 128 183 155 180 143 147 153 159 169 175 174 172 167 164 164 163 155 152 179 189 144 205 168 206 179 198 165 198 210 276 198 341 18 347 347 14 358 10 14 1 357 338
227 238 237 223 215 202 143 152 195 169 119 142 150 161 167 175 179 178 177 171 165 163 160 169 158 172 168 233 186 218 233 197 151 216 149 302 323 8 338 19 1 6 1 11 11 16 1 350 347
202 257 221 202 179 146 181 161 198 190 160 162 158 171 174 178 183 176 180 173 167 163 161 167 171 163 174 211 204 199 219 95 240 204 67 98 324 8 20 50 30 26 9 32 2 13 3 354 343
233 234 211 215 162 161 220 182 203 141 175 166 169 179 178 181 183 180 181 176 177 171 172 166 182 166 202 190 198 229 178 191 152 75 66 26 345 60 354 50 27 27 22 10 28 4 22 2 342
234 234 194 182 182 133 227 211 186 152 178 171 180 182 182 183 184 179 181 186 174 179 182 182 191 165 190 189 187 194 123 180 139 127 108 71 100 77 127 70 36 8 17 21 40 19 4 10 345
201 213 237 165 188 172 220 130 162 174 177 185 187 186 188 187 190 180 181 184 184 193 179 192 188 176 178 172 180 179 121 196 119 102 143 103 109 96 74 78 71 8 36 30 12 20 8 3 350
209 228 224 208 180 225 195 256 159 174 188 210 194 199 194 197 194 186 197 188 191 190 188 189 183 196 168 160 180 151 173 128 138 151 102 162 108 113 104 83 55 30 39 41 10 9 2 24 360
318 265 238 228 172 195 247 209 254 169 212 210 205 199 201 203 196 197 196 200 193 190 186 183 192 176 170 181 183 159 173 151 144 137 154 137 124 117 125 119 113 80 47 31 18 353 1 15 17
275 260 228 199 147 194 225 238 259 236 194 212 225 201 203 208 209 197 198 205 202 194 188 184 193 163 188 180 158 164 157 132 152 131 152 131 135 137 109 81 72 28 104 37 19 12 349 8 51
249 258 250 247 159 206 251 267 257 244 244 228 219 242 200 206 208 208 203 201 202 194 188 186 175 160 182 141 134 116 97 125 136 132 166 155 151 133 123 101 84 94 358 68 7 4 29 343 7
237 229 265 272 172 222 202 246 239 237 241 234 238 221 233 200 208 203 206 197 200 194 181 183 142 144 149 153 154 156 157 156 179 177 159 161 151 142 136 124 115 15 50 12 40 33 341 1 342
246 257 220 255 257 252 249 245 264 274 244 224 220 238 238 221 204 205 194 192 193 193 179 160 154 153 168 168 162 162 168 183 175 184 139 167 156 155 160 156 148 169 16 82 40 6 17 338 333
252 248 261 254 241 240 240 261 245 243 241 236 233 230 221 234 222 205 195 177 184 189 155 161 165 176 177 168 167 168 183 173 183 164 172 179 171 169 175 167 156 131 73 51 38 5 37 12 338
237 230 235 233 239 245 243 244 238 262 241 288 257 268 246 214 224 208 188 183 141 158 164 167 171 181 192 186 183 161 169 176 186 163 186 183 178 177 163 173 179 150 105 87 358 50 320 34 346
208 231 237 233 233 238 231 232 240 258 259 269 293 272 296 288 291 285 200 174 151 166 172 162 178 201 197 191 172 165 165 176 187 182 191 192 182 177 147 177 149 158 135 46 1 169 349 27 354
245 211 236 257 271 281 281 177 234 208 230 249 256 227 230 251 273 300 285 175 149 170 173 168 182 194 205 199 188 187 176 172 193 185 206 192 178 138 168 161 159 144 129 43 337 68 17 329 344
252 287 236 240 258 267 266 253 262 170 187 225 224 224 228 244 226 262 249 174 153 169 184 185 195 201 194 194 195 195 182 181 190 177 193 185 165 157 153 156 154 156 133 10 322 318 101 329 348
206 241 252 272 267 256 246 251 4 237 192 209 223 223 229 245 198 193 211 173 162 174 190 200 196 214 208 198 195 188 187 184 190 177 185 168 164 160 163 165 158 158 155 119 230 119 156 316 349
246 236 224 240 243 254 281 286 306 267 263 235 221 226 214 238 261 175 190 173 184 182 192 199 204 203 215 200 195 187 182 182 183 178 185 171 160 159 176 145 142 171 158 173 199 345 26 9 5